Notices

What's New in latest Release from April 7th, 2021:

- Updated Glossary, including Speed of Maximum Gust, and Total Hourly Precipitation

- Updated national and regional climate services offices contacts and prices information

- Addition of station inventory lists for 1981-2010, 1971-2000, and 1961-1990 Normals.

If you haven't already, please take our survey and provide feedback about our website: https://eccc.sondage-survey.ca/f/LanguageSelection.aspx?s=442ca660-fcf1-47c0-95a9-59707d6fd709

Hourly Data Report for April 10, 2016

MIRAMICHI RCS
NEW BRUNSWICK

47°00'34.000" N
65°27'54.000" W
33.00 m
8100989
71744
ACQ

Download Data

Hourly Data (April 2016)
Hourly Data Report for April 10, 2016
TIME
LST
Temp Definition
°C
Dew Point Definition
°C
Rel Hum Definition
%
Precip. Amount Definition
mm

Wind Dir Definition
10's deg

Wind Spd Definition
km/h
Visibility Definition
km
Stn Press Definition
kPa
Hmdx Definition


Wind Chill Definition


Weather Definition


00:00 -0.3 -5.4 69 0.0 30 10   100.63   -4 LegendNANA
01:00 -0.9 -7.7 60 0.0 32 9   100.59   -4 LegendNANA
02:00 -1.7 -9.5 55 0.0 32 8   100.73   -5 LegendNANA
03:00 -2.8 -10.8 54 0.0 34 11   100.67   -7 LegendNANA
04:00 -3.3 -10.3 58 0.0 32 12   100.68   -8 LegendNANA
05:00 -3.9 -10.0 62 0.0 32 14   100.72   -9 LegendNANA
06:00 -4.3 -11.4 57 0.0 33 14   100.75   -9 LegendNANA
07:00 -5.0 -12.9 54 0.0 32 15   100.77   -11 LegendNANA
08:00 -4.8 -12.7 54 0.0 31 20   100.75   -11 LegendNANA
09:00 -4.0 -13.1 49 0.0 31 23   100.71   -11 LegendNANA
10:00 -2.9 -13.9 42 0.0 31 18   100.74   -9 LegendNANA
11:00 -1.1 -12.7 41 0.0 30 20   100.74   -7 LegendNANA
12:00 0.4 -13.5 34 0.0 29 23   100.74     LegendNANA
13:00 1.2 -12.6 35 0.0 29 23   100.77     LegendNANA
14:00 2.1 -12.6 33 0.0 31 23   100.82     LegendNANA
15:00 2.8 -12.3 32 0.0 29 24   100.84     LegendNANA
16:00 3.0 -14.5 26 0.0 29 26   100.94     LegendNANA
17:00 2.9 -16.2 23 0.0 28 28   101.04     LegendNANA
18:00 2.1 -14.6 28 0.0 28 25   101.17     LegendNANA
19:00 0.8 -14.4 31 0.0 28 23   101.30     LegendNANA
20:00 -0.4 -14.7 33 0.0 27 13   101.47   -5 LegendNANA
21:00 -0.8 -14.6 34 0.0 28 16   101.56   -6 LegendNANA
22:00 -1.4 -14.5 36 0.0 27 15   101.71   -6 LegendNANA
23:00 -2.0 -14.5 38 0.0 26 14   101.83   -7 LegendNANA

Notes on Data Quality.

Legend

  • E = Estimated
  • M = Missing
  • NA = Not Available*
  • [empty] = Indicates an unobserved value
Date modified: